sat.trackr.live / text

‹ back to catalog

STARLINK-32666

NORAD 62214 · 2024-229Y

PAYLOAD ACTIVE UNKNOWN

§ Identity

Operator
Country
US
Launch date
2024-12-04
Launch site
AFETR
Launch vehicle
Mass (kg)
RCS (m²)

Purposes: comms

External: N2YO · Heavens-Above · Gunter

§ Orbital elements

Epoch: 2026-09-21T22:59:58.849728Z

Period
94.27 min
Inclination
42.9984°
Eccentricity
0.0001186
Mean motion
15.27584173 rev/d
Perigee alt
482.2 km
Apogee alt
483.9 km
Semi-major
6,861.2 km
B*
3.2855e-4
RAAN
242.6725°
Arg perigee
274.1896°
Mean anomaly
85.8820°
Rev number
10,057

§ Raw data

STARLINK-326661 62214U 24229Y   26264.95832002  .00008791  00000+0  32855-3 0  99932 62214  42.9984 242.6725 0001186 274.1896  85.8820 15.27584173100571

JSON: /api/v1/satellites/62214 · /tle

For live sub-satellite position, see the globe view (requires WebGL).

§ Visibility from observer

Set your observer location to see the next 7 days of passes ≥ 10°. The values pass through the URL so the page stays shareable.

No JS? Fill the form by hand. The geolocation button needs JavaScript.